Georgetown, DE

4:09 PM EDT on September 25, 2016 (GMT -0400)
Sussex County

Weather History for KGED - January, 2013

Change the Weather History Date:

Thursday, January 24, 2013

  Actual Average Record
Temperature  
Mean Temperature 22 °F 35 °F  
Max Temperature 27 °F 44 °F 73 °F (1967)
Min Temperature 17 °F 26 °F 6 °F (1987)
Degree Days  
Heating Degree Days 43 30  
Month to date heating degree days 618 717  
Since 1 July heating degree days 2032 2299  
Cooling Degree Days 0 0  
Month to date cooling degree days 0 0  
Year to date cooling degree days 0 0  
Moisture  
Dew Point 9 °F    
Average Humidity 58    
Maximum Humidity 84    
Minimum Humidity 32    
Precipitation  
Precipitation 0.09 in 0.10 in 1.10 in (1965)
Month to date precipitation 2.25 2.27  
Year to date precipitation 2.25 2.27  
Sea Level Pressure  
Sea Level Pressure 30.26 in    
Wind  
Wind Speed 8 mph (North)    
Max Wind Speed 18 mph    
Max Gust Speed 32 mph    
Visibility 7 miles    
Events Snow    
T = Trace of Precipitation, MM = Missing Value Source: NWS Daily Summary

Daily Weather History Graph

Daily Weather History Graph

Search for Another Location

Airport or City:

Trip Planner

Search our weather history database for the weather conditions in past years. The results will help you decide how hot, cold, wet, or windy it might be!

Date:

Astronomy

Jan. 24, 2013 Rise Set
Actual Time 7:13 AM EST 5:14 PM EST
Civil Twilight 6:44 AM EST 5:42 PM EST
Nautical Twilight 6:12 AM EST 6:15 PM EST
Astronomical Twilight 5:41 AM EST 6:46 PM EST
Moon 3:14 PM EST (1/24) 5:08 AM EST (1/24)
Length of Visible Light 10h 58m
Length of Day
10h 01m
Waxing Gibbous, 94% of the Moon is Illuminated
Jan 24
Waxing Gibbous
Jan 26
Full
Feb 3
Last Quarter
Feb 10
New
Feb 17
First Quarter

Hourly Weather History & Observations

Time (EST) Temp. Windchill Dew Point Humidity Pressure Visibility Wind Dir Wind Speed Gust Speed Precip Events Conditions
12:54 AM 21.9 °F 17.2 °F 8.1 °F 55% 30.17 in 10.0 mi East 3.5 mph - N/A   Overcast
1:54 AM 21.9 °F 11.0 °F 12.0 °F 66% 30.14 in 8.0 mi NE 10.4 mph - 0.00 in   Overcast
2:25 AM 21.2 °F 10.9 °F 14.0 °F 74% 30.13 in 2.5 mi NE 9.2 mph - 0.00 in Snow Light Snow
3:12 AM 19.4 °F 8.6 °F 15.8 °F 86% 30.11 in 1.8 mi NE 9.2 mph - 0.00 in Snow Light Snow
3:54 AM 19.9 °F 9.3 °F 15.1 °F 81% 30.10 in 1.5 mi NNE 9.2 mph - 0.00 in Snow Light Snow
4:45 AM 19.4 °F 10.4 °F 15.8 °F 86% 30.10 in 1.0 mi NNE 6.9 mph - 0.00 in Snow Light Snow
4:54 AM 19.9 °F 10.1 °F 15.1 °F 81% 30.10 in 1.0 mi NNE 8.1 mph - 0.00 in Snow Light Snow
5:33 AM 19.4 °F 7.2 °F 15.8 °F 86% 30.11 in 0.8 mi NNE 11.5 mph - 0.00 in Snow Light Snow
5:43 AM 19.4 °F 8.6 °F 15.8 °F 86% 30.12 in 1.0 mi North 9.2 mph - 0.00 in Snow Light Snow
5:50 AM 19.4 °F 9.5 °F 15.8 °F 86% 30.12 in 1.2 mi NNE 8.1 mph - 0.00 in Snow Light Snow
5:54 AM 19.0 °F 7.5 °F 14.0 °F 81% 30.12 in 1.2 mi North 10.4 mph - 0.00 in Snow Light Snow
6:03 AM 19.4 °F 8.6 °F 14.0 °F 80% 30.13 in 1.8 mi North 9.2 mph - 0.00 in Snow Light Snow
6:15 AM 19.4 °F 8.6 °F 14.0 °F 80% 30.13 in 2.0 mi North 9.2 mph - 0.00 in Snow Light Snow
6:33 AM 19.4 °F 9.5 °F 12.2 °F 74% 30.14 in 2.5 mi North 8.1 mph 17.3 mph 0.00 in Snow Light Snow
6:44 AM 17.6 °F 7.3 °F 12.2 °F 79% 30.15 in 4.0 mi North 8.1 mph - 0.00 in Snow Light Snow
6:54 AM 18.0 °F 8.7 °F 12.0 °F 78% 30.16 in 8.0 mi North 6.9 mph - 0.00 in   Overcast
7:54 AM 17.1 °F 7.6 °F 8.1 °F 68% 30.19 in 10.0 mi North 6.9 mph - N/A   Clear
8:54 AM 19.0 °F 10.0 °F 9.0 °F 65% 30.23 in 10.0 mi NNW 6.9 mph - N/A   Partly Cloudy
9:54 AM 19.9 °F 8.6 °F 8.1 °F 60% 30.27 in 10.0 mi North 10.4 mph 17.3 mph N/A   Clear
10:54 AM 21.9 °F 12.5 °F 7.0 °F 53% 30.29 in 10.0 mi North 8.1 mph - N/A   Clear
11:54 AM 24.1 °F 11.5 °F 6.1 °F 46% 30.30 in 10.0 mi NNW 15.0 mph 20.7 mph N/A   Partly Cloudy
12:54 PM 24.1 °F 12.0 °F 5.0 °F 44% 30.31 in 10.0 mi NNW 13.8 mph 23.0 mph N/A   Mostly Cloudy
1:54 PM 25.0 °F 13.1 °F 6.1 °F 45% 30.32 in 10.0 mi NW 13.8 mph 23.0 mph N/A   Overcast
2:54 PM 26.1 °F 15.0 °F 3.9 °F 39% 30.34 in 10.0 mi WNW 12.7 mph 26.5 mph N/A   Overcast
3:54 PM 26.1 °F 16.2 °F -0.0 °F 32% 30.38 in 10.0 mi North 10.4 mph 20.7 mph N/A   Clear
4:54 PM 25.0 °F 14.8 °F -0.0 °F 34% 30.41 in 10.0 mi NNW 10.4 mph 21.9 mph N/A   Clear
5:54 PM 24.1 °F 18.2 °F -0.9 °F 34% 30.44 in 10.0 mi NW 4.6 mph - N/A   Clear
6:54 PM 21.9 °F 17.2 °F -0.0 °F 38% 30.46 in 10.0 mi NW 3.5 mph - N/A   Clear
7:54 PM 21.0 °F 16.2 °F 1.0 °F 42% 30.49 in 10.0 mi NW 3.5 mph - N/A   Clear
8:54 PM 19.0 °F - 3.0 °F 50% 30.49 in 10.0 mi Calm Calm - N/A   Clear
9:54 PM 19.9 °F 13.4 °F 1.0 °F 44% 30.49 in 10.0 mi NW 4.6 mph - N/A   Clear
10:54 PM 19.0 °F 12.3 °F 1.0 °F 46% 30.50 in 10.0 mi NW 4.6 mph - N/A   Clear
11:54 PM 18.0 °F - 1.9 °F 50% 30.50 in 10.0 mi Calm Calm - N/A   Clear